This demonstration page uses our WeatherBlox Daily Observations layout. Learn more.

Left ArrowRight Arrow

38.20091, -84.87328

Hourly Observations for April 8, 2020

Temp ( °F °C ) Dew Point ( °F °C ) Humidity (%) Winds ( mph kmh ) Pressure ( in mb ) Visibility ( mi km ) Precip ( " mm )
12:53 am 00:53 Clear 70 21.1 61 16.1 73 73 SW 17 28 29.71 1006 10 16 0.00 0.00
1:53 am 01:53 Partly Cloudy 70 21.1 61 16.1 73 73 SW 20 31 29.73 1007 10 16 0.00 0.00
2:12 am 02:12 Mostly Cloudy 70 21.1 61 16.1 73 73 SW 17 28 29.73 1007 10 16 0.00 0.00
2:53 am 02:53 Cloudy 70 21.1 61 16.1 73 73 SW 16 26 29.72 1006 10 16 0.00 0.00
3:53 am 03:53 Cloudy 70 21.1 60 15.6 71 71 WSW 13 20 29.72 1006 10 16 0.00 0.00
4:38 am 04:38 Cloudy 69 20.6 61 16.1 76 76 SW 16 26 29.70 1006 10 16 0.00 0.00
4:45 am 04:45 Cloudy 69 20.6 61 16.1 76 76 SW 14 22 29.70 1006 10 16 0.00 0.00
4:53 am 04:53 Cloudy 69 20.6 61 16.1 76 76 SW 14 22 29.70 1006 10 16 0.00 0.00
5:00 am 05:00 Cloudy 69 20.6 61 16.1 76 76 SW 16 26 29.70 1006 10 16 0.00 0.00
5:12 am 05:12 Cloudy 69 20.6 61 16.1 76 76 SW 13 20 29.70 1006 10 16 0.00 0.00
5:53 am 05:53 Cloudy 68 20 61 16.1 78 78 SW 15 24 29.71 1006 10 16 0.00 0.00
6:53 am 06:53 Mostly Cloudy 67 19.4 61 16.1 81 81 SW 10 17 29.72 1006 10 16 0.00 0.00
7:53 am 07:53 Cloudy 67 19.4 61 16.1 81 81 SW 13 20 29.73 1007 10 16 0.00 0.00
8:01 am 08:01 Cloudy 67 19.4 61 16.1 81 81 SW 12 19 29.74 1007 10 16 0.00 0.00
8:53 am 08:53 Cloudy 68 20 62 16.7 81 81 SW 8 13 29.75 1008 10 16 0.00 0.00
9:53 am 09:53 Mostly Cloudy 71 21.7 63 17.2 76 76 SW 13 20 29.75 1007 10 16 0.00 0.00
10:53 am 10:53 Mostly Cloudy 72 22.2 63 17.2 73 73 WSW 7 11 29.75 1008 10 16 0.00 0.00
11:35 am 11:35 Mostly Cloudy 75 23.9 64 17.8 69 69 W 12 19 29.75 1007 10 16 0.00 0.00
11:53 am 11:53 Partly Cloudy 76 24.4 62 16.7 62 62 W 12 19 29.75 1008 10 16 0.00 0.00
12:53 pm 12:53 Partly Cloudy 78 25.6 62 16.7 58 58 W 12 19 29.73 1007 10 16 0.00 0.00
1:53 pm 13:53 Mostly Sunny 80 26.7 61 16.1 52 52 SW 15 24 29.70 1006 10 16 0.00 0.00
2:42 pm 14:42 Partly Cloudy with Nearby Thunderstorms 80 26.7 59 15 49 49 SW 9 15 29.67 1005 10 16 0.00 0.00
2:49 pm 14:49 Partly Cloudy with Thunderstorms 82 28 61 16 48 48 WSW 8 13 29.67 1005 10 16 0.00 0.00
2:53 pm 14:53 Mostly Cloudy with Thunderstorms 79 26.1 59 15 50 50 SSW 7 11 29.68 1005 10 16 0.00 0.00
3:28 pm 15:28 Mostly Cloudy with Nearby Thunderstorms 77 25 60 15.6 56 56 N 6 9 29.67 1005 10 16 0.00 0.00
3:46 pm 15:46 Mostly Cloudy 80 26.7 59 15 49 49 NNE 5 7 29.66 1005 10 16 0.00 0.00
3:53 pm 15:53 Mostly Cloudy 80 26.7 59 15 49 49 N 7 11 29.67 1005 10 16 0.00 0.00
4:53 pm 16:53 Mostly Sunny 83 28.3 57 13.9 41 41 W 9 15 29.65 1004 10 16 0.00 0.00
5:53 pm 17:53 Mostly Sunny 83 28.3 55 12.8 38 38 VRB 7 11 29.62 1003 10 16 0.00 0.00
6:53 pm 18:53 Mostly Sunny 81 27.2 55 12.8 41 41 SW 12 19 29.60 1002 10 16 0.00 0.00
7:53 pm 19:53 Sunny 77 25 59 15 54 54 SSW 10 17 29.58 1002 10 16 0.00 0.00
8:53 pm 20:53 Clear 75 23.9 61 16.1 62 62 SSW 12 19 29.55 1001 10 16 0.00 0.00
9:53 pm 21:53 Clear 73 22.8 61 16.1 66 66 SSW 14 22 29.54 1000 10 16 0.00 0.00
11:27 pm 23:27 Partly Cloudy with Nearby Thunderstorms 66 18.9 53 11.7 63 63 NW 30 48 29.66 1005 10 16 0.00 0.00
11:35 pm 23:35 Mostly Cloudy with Strong Thunderstorms 60 15.6 53 11.7 78 78 NW 28 44 29.68 1005 3 5 0.06 1.52
11:42 pm 23:42 Mostly Cloudy with Strong Thunderstorms 59 15 54 12.2 83 83 NW 25 41 29.69 1005 2 3 0.13 3.30
11:53 pm 23:53 Cloudy with Thunderstorms 59 15 55 12.8 87 87 NW 15 24 29.68 1005 5 8 0.16 4.06

Powered by AerisWeather